Location: Kott?ru
(16.6209°N, 80.6208°E)
Time: 09:43:32
(UTC+00:00)

Daily predictions for brighter satellites

Satellite Brightness Start Highest point End
(mag) Time Altitude Azimuth Time Altitude Azimuth Time Altitude Azimuth
COSMO-SKYMED 1 4.0 12:50:08 10° N 12:54:15 44° WNW 12:58:22 10° SSW
Tsikada Rocket 4.4 12:51:15 10° NNE 12:56:59 41° E 13:02:46 10° SSE
SJ 16-02 4.3 13:01:49 10° WSW 13:05:07 21° WNW 13:08:25 10° NNW
Ariane H10 4.4 13:03:47 10° SW 13:07:27 26° SSE 13:18:08 11° ESE
Okean 2 Rocket 4.5 13:05:59 10° SE 13:09:00 18° E 13:12:02 10° NE
Okean-O 2.8 13:07:31 10° SSE 13:11:48 52° ENE 13:16:06 10° N
Cosmos 724 4.4 13:05:57 10° NNW 13:12:08 83° ENE 13:18:20 10° SSE
Helios 1A Rocket 2.9 13:11:07 10° SSE 13:15:10 89° E 13:19:16 10° NNW
Cosmos 1939 Rocket 2.9 13:12:25 10° S 13:16:28 86° W 13:20:34 10° NNW
Shenzhou-11 Module 2.6 13:17:09 10° S 13:18:52 21° SE 13:19:07 20° SE
CSL-04 Rocket 4.4 13:15:58 10° SE 13:20:33 30° ENE 13:25:12 10° NNE
Cosmos 1378 Rocket 3.4 13:16:30 10° N 13:20:47 84° E 13:25:05 10° S
Cosmos 1300 Rocket 4.5 13:19:39 10° SSE 13:23:14 25° E 13:26:52 10° NE
GPS 2-17 Rocket1 3.8 13:19:35 10° SW 13:23:57 40° SSE 13:26:55 19° E
CZ-2D R/B 3.3 13:23:18 10° S 13:27:10 84° W 13:31:03 10° NNW
USA 234 3.5 13:21:55 10° NNE 13:28:26 73° NW 13:34:57 10° SW
YAOGAN 1 2.6 13:24:26 10° SSE 13:28:39 59° ENE 13:32:54 10° N
GPS 2-04 Rocket1 4.3 13:27:13 10° NNW 13:30:32 22° NNE 13:32:11 18° ENE
Delta 168 3.2 13:37:31 10° WNW 13:41:19 39° NNE 13:42:19 31° NE
Cosmos 372 Rocket 4.1 13:37:05 10° SSW 13:42:19 80° WNW 13:47:34 10° N
HJ-1C 3.8 13:42:42 38° ENE 13:42:42 38° ENE 13:45:36 10° N
Cosmos 2150 Rocket 4.0 13:37:57 10° S 13:43:05 56° ESE 13:48:19 10° NNE
OAO 3 Copernicus 4.4 13:40:47 10° NW 13:45:46 59° NNE 13:47:49 33° E
ASTRO E2 2.8 13:45:44 10° WNW 13:49:39 67° SSW 13:50:59 39° SE
ATLAS 2AS CENTAUR R/B 3.5 13:43:09 10° S 13:49:46 33° ESE 13:53:29 22° ENE
Cosmos 2151 Rocket 3.9 13:45:57 10° SSE 13:50:04 40° E 13:54:13 10° NNE
Palapa B4 Rocket 4.4 13:44:14 10° W 13:50:18 79° N 13:56:15 26° ENE
DMSP B5D2-2 4.3 13:47:45 10° NNE 13:52:47 45° E 13:57:48 10° S
CZ-4 R/B 2.7 13:50:08 10° S 13:54:08 44° W 13:58:09 10° NNW
Okean 2 3.4 13:50:17 10° N 13:54:26 83° W 13:58:33 10° S
Cosmos 1125 Rocket 3.7 13:49:44 10° S 13:54:43 44° E 13:59:43 10° NNE
Cosmos 2112 Rocket 3.8 13:58:37 10° N 14:03:50 81° ENE 14:06:55 25° SSE
Cosmos 1680 Rocket 3.6 14:02:30 10° NNW 14:07:43 74° WSW 14:12:17 14° S
ARGOS 3.1 14:07:33 46° SE 14:08:51 60° ENE 14:14:06 10° N
H-2A R/B 1.8 14:06:58 20° SSE 14:10:25 89° WSW 14:15:22 10° NNW
OAO 1 4.4 14:08:02 10° SW 14:13:30 86° SSE 14:14:30 61° ENE
Cosmos 2285 Rocket 3.8 14:10:52 10° S 14:17:03 66° ESE 14:23:17 10° NNE
Cosmos 1844 3.7 14:14:21 10° SSW 14:20:06 83° WNW 14:25:49 10° NNE
ATLAS 5 CENTAUR R/B 2.3 14:21:49 10° WNW 14:23:01 28° NW 14:23:01 28° NW
CZ-2C R/B 3.2 14:22:55 10° N 14:28:25 60° WNW 14:33:55 10° SSW
Cosmos 1975 Rocket 4.0 14:24:48 10° NNW 14:28:53 45° W 14:30:07 35° SW
Cosmos 1844 Rocket 3.7 14:27:34 10° SW 14:32:49 44° WNW 14:38:07 10° N
Intelsat 5-1 Rocket 3.4 14:16:26 10° WSW 14:34:19 76° SSE 14:35:33 64° ESE
Milstar 3 Cent rocket 3.2 14:35:28 10° W 14:41:24 34° NNW 14:41:51 34° N
Ariane H10 4.4 14:35:25 10° WSW 14:44:13 26° SSW 14:44:57 25° SSW
Cosmos 1943 4.0 14:51:02 10° NNW 14:55:24 47° WNW 14:55:24 47° WNW
ATLAS 2AS CENTAUR R/B 4.2 15:33:32 10° SW 15:40:31 37° WNW 15:41:16 36° NW
ATLAS 2A CENTAUR R/B 4.5 15:31:07 10° WNW 16:05:19 61° NNW 16:05:19 61° NNW
SL-16 R/B 4.3 21:37:47 23° E 21:37:47 23° E 21:40:56 10° NE
Cosmos 1238 Rocket 4.0 22:18:02 10° N 22:24:18 68° E 22:29:42 10° SSE
Delta 202 3.7 22:26:36 67° ESE 22:26:36 67° ESE 22:31:14 10° E
GPS 2-15 Rocket1 3.7 22:34:24 51° NE 22:34:24 51° NE 22:38:13 10° ENE
ADEOS 4.3 22:29:06 10° NNE 22:34:09 51° ESE 22:39:12 10° S
deb Chang Zheng 4 4.4 22:32:26 10° NNE 22:36:32 48° E 22:37:42 37° SSE
CBERS 1 LM4 rocket 4.4 22:33:21 10° N 22:38:46 83° WNW 22:39:06 78° SW
Palapa 6 Rocket 4.2 22:38:03 58° WSW 22:39:32 71° SSW 22:47:33 10° ESE
Milstar 3 Cent rocket 4.5 22:36:32 36° SW 22:39:42 41° SSW 22:58:34 10° SE
CZ-3 Stage 3 4.3 22:42:38 32° S 22:42:38 32° S 22:46:37 10° SE
Chandra Rocket (1) 4.4 22:33:03 23° WNW 22:42:09 48° N 22:47:21 10° ENE
Cosmos 1727 Rocket 3.9 22:37:07 10° S 22:43:28 89° W 22:49:49 10° N
Cosmos 841 Rocket 4.2 22:42:30 10° S 22:47:30 53° ESE 22:52:34 10° NNE
Sylda 5 3.6 22:54:17 21° S 22:54:29 22° S 22:57:44 10° ESE
IRIDIUM 106 4.3 22:50:18 10° N 22:55:31 82° E 23:00:43 10° S
Cosmos 2360 Rocket 2.6 22:51:54 10° S 22:57:29 63° ESE 23:03:04 10° NNE
Cosmos 1570 Rocket 4.3 22:52:30 10° S 22:57:43 69° ESE 23:02:59 10° NNE
Cosmos 1763 Rocket 3.7 22:58:12 47° WNW 22:58:14 47° WNW 23:03:20 10° N
ALOS 2.6 22:55:34 10° NNE 23:00:12 67° ESE 23:04:48 10° S
Yuri Rocket 3.2 22:59:59 55° W 23:00:55 75° NNW 23:06:30 10° ENE
Cosmos 2082 3.9 23:01:41 19° NW 23:05:28 45° WSW 23:10:54 10° S
Cosmos 1869 Rocket 3.4 23:04:45 10° N 23:09:04 89° WNW 23:13:23 10° S
OAO 1 4.5 23:07:42 36° WNW 23:09:51 64° SW 23:15:17 10° SE
ARIANE 5 R/B 4.4 23:10:35 19° SSW 23:11:23 20° S 23:14:21 10° SE
GPS 2-18 Rocket1 3.8 23:10:48 35° NW 23:11:49 44° N 23:15:38 10° ENE
Cosmos 2322 Rocket 2.6 23:11:06 33° WSW 23:12:40 39° WNW 23:17:56 10° N
H-2A R/B 2.3 23:09:31 10° S 23:13:30 41° W 23:17:35 10° NNW
Cosmos 2237 4.1 23:11:17 10° SSW 23:16:57 71° WNW 23:22:39 10° N
Cosmos 1437 Rocket 4.3 23:14:12 10° SSE 23:17:39 36° E 23:21:07 10° NNE
Cosmos 1484 Rocket 2.8 23:14:10 10° N 23:18:07 61° WNW 23:22:03 10° SSW
Hubble Space Telescope 3.1 23:17:22 10° SSW 23:20:10 18° SSE 23:22:58 10° ESE
SL-16 R/B 3.1 23:19:44 25° WNW 23:20:15 25° WNW 23:24:52 10° NNW
ERS-2 2.1 23:18:30 10° S 23:22:05 58° WSW 23:25:41 10° NNW
SJ 16-02 1.9 23:20:52 10° N 23:25:11 61° ENE 23:29:31 10° SSE
METEOR-M 4.0 23:20:49 10° N 23:26:08 75° WNW 23:31:27 10° SSW
CZ-2C R/B 3.9 23:23:43 10° NNW 23:26:48 18° WNW 23:26:48 18° WNW
FENGYUN 3A 3.7 23:23:26 10° N 23:28:41 55° WNW 23:33:57 10° SSW
Meteor 1-31 Rocket 2.8 23:25:01 10° N 23:28:44 52° WNW 23:32:29 10° SSW
ADEOS Rocket 3.3 23:24:11 10° S 23:31:40 78° WSW 23:38:28 10° NNW
USA 234 3.6 23:25:30 10° SE 23:31:58 67° NE 23:38:24 10° NNW
Cosmos 540 Rocket 3.7 23:27:16 10° SSW 23:32:10 45° WNW 23:37:05 10° N
OAO 3 Rocket 4.3 23:27:40 10° SSW 23:32:17 41° SE 23:36:55 10° ENE
Cosmos 2263 Rocket 2.8 23:26:42 10° N 23:32:17 60° ENE 23:37:51 10° SSE
Intercosmos 25 4.2 23:30:14 10° S 23:37:30 84° W 23:41:56 10° N
Cosmos 44 Rocket 4.0 23:35:11 18° WSW 23:37:46 30° WNW 23:41:53 10° N
USA 281 3.7 23:33:11 10° NNE 23:39:41 64° ESE 23:46:09 10° S
Cosmos 2227 4.3 23:37:02 10° NNW 23:42:40 85° ENE 23:48:16 10° SSE
Meteor PRIRODA 3.5 23:39:20 10° N 23:42:57 83° WNW 23:46:35 10° SSW
COSMOS 2428 4.0 23:40:05 10° S 23:45:27 45° ESE 23:50:51 10° NNE
FUSE 4.0 23:42:25 12° WNW 23:47:28 86° NNE 23:52:53 10° ESE
Cosmos 1515 4.3 23:44:34 10° S 23:48:19 61° E 23:52:03 10° NNE
SJ-12 4.0 23:44:23 10° N 23:48:24 53° WNW 23:52:26 10° SSW
Cosmos 2219 Rocket 2.9 23:43:56 10° S 23:49:27 60° ESE 23:55:00 10° NNE
Meteor 1-19 Rocket 4.5 23:48:00 10° S 23:53:22 72° E 23:58:47 10° NNE
